Regional Weather Roundup
Issued by NWS

Home | Current Version | Previous Version | Graphics & Text | Print | Product List | Glossary On
Versions: 1 2 3 4 5 6 7 8 9 10 11 12 13 14 15 16 17 18 19 20 21 22 23 24 25 26 27
000
ASUS45 KBOI 190110
RWRID

IDAHO REGIONAL WEATHER ROUNDUP
NATIONAL WEATHER SERVICE BOISE ID
700 PM MDT WED OCT 18 2017

NOTE: "FAIR" INDICATES FEW OR NO CLOUDS BELOW 12000 FEET
WITH NO SIGNIFICANT WEATHER AND/OR OBSTRUCTIONS TO VISIBILITY

IDZ012-014-190200-
SOUTHWEST IDAHO


CITY           SKY/WX    TMP DP  RH WIND       PRES   REMARKS
BOISE          MOCLDY    69  28  21 SE8       29.92F
CALDWELL       MOCLDY    63  39  42 NE6       29.90F HAZE
MOUNTAIN HOME  PTCLDY    65  27  24 E8        29.94F
$$

IDZ016-017-190200-
SOUTHCENTRAL IDAHO


CITY           SKY/WX    TMP DP  RH WIND       PRES   REMARKS
BURLEY         PTCLDY    62  28  27 E5        30.03S
JEROME         PTCLDY    59  35  40 NE9       30.03F
TWIN FALLS     PTCLDY    61  28  28 NE3       30.03F
$$

IDZ019>023-190200-
SOUTHEAST IDAHO


CITY           SKY/WX    TMP DP  RH WIND       PRES   REMARKS
IDAHO FALLS    CLEAR     60  28  29 S9        30.08F
POCATELLO      CLEAR     61  29  29 S5        30.08S
REXBURG        CLOUDY    59  26  28 SW7       30.08F
$$

IDZ006-010-011-018-031-032-190200-
CENTRAL IDAHO MOUNTAINS


CITY           SKY/WX    TMP DP  RH WIND       PRES   REMARKS
MCCALL         CLOUDY    53  31  42 N3        30.00F
HAILEY         CLEAR     57  27  30 CALM      30.10F
STANLEY          N/A     47  27  45 S6        30.11S
SALMON         CLOUDY    58  33  39 SE3       29.94F
CHALLIS        CLOUDY    55  29  36 SW6       30.00F
$$

IDZ002-004-006-007-026-190200-
NORTHERN IDAHO


CITY           SKY/WX    TMP DP  RH WIND       PRES   REMARKS
LEWISTON       CLOUDY    56  46  69 CALM      29.84F
LOWELL           N/A     51  49  92 CALM      29.91S
COEUR D`ALENE  LGT RAIN  51  49  92 S14       29.82F
MULLAN PASS    LGT RAIN  39  38  96 SW16G32   29.90F FOG     WCI  30
$$




USA.gov is the U.S. government's official web portal to all federal, state and local government web resources and services.